contact:dominique.lefevre@mio.osupytheas.fr, maurice.libes@osupytheas.fr, didier.mallarino@osupytheas.fr
Project:EMSO http://www.emso-fr.org/EMSO-France
Depth: 2436.0 m
Title:EMSO Ligure Ouest : Data MII capteur MICROCAT
DateTime_Computer,Latitude,Longitude,Temperature,Conductivity,Pressure,DateTime_Instrument
DateTime_Computer,Latitude,Longitude,degC,S m-1,dbar,DateTime_Instrument
2023-09-10T00:02:31Z,42.805,6.029,13.3048,4.60130,2470.707,2023-9-10T02:04:53Z
2023-09-10T00:05:34Z,42.805,6.029,13.3047,4.60132,2470.717,2023-9-10T02:07:56Z
2023-09-10T00:08:37Z,42.805,6.029,13.3043,4.60128,2470.754,2023-9-10T02:10:59Z
2023-09-10T00:11:40Z,42.805,6.029,13.3048,4.60125,2470.74,2023-9-10T02:14:02Z
2023-09-10T00:14:43Z,42.805,6.029,13.3043,4.60126,2470.74,2023-9-10T02:17:05Z
2023-09-10T00:17:46Z,42.805,6.029,13.3038,4.60127,2470.717,2023-9-10T02:20:08Z
2023-09-10T00:20:49Z,42.805,6.029,13.3041,4.60118,2470.693,2023-9-10T02:23:11Z
2023-09-10T00:23:53Z,42.805,6.029,13.3046,4.60137,2470.717,2023-9-10T02:26:14Z
2023-09-10T00:26:56Z,42.805,6.029,13.3043,4.60117,2470.693,2023-9-10T02:29:17Z
2023-09-10T00:29:59Z,42.805,6.029,13.3041,4.60126,2470.74,2023-9-10T02:32:20Z
2023-09-10T00:33:02Z,42.805,6.029,13.3042,4.60117,2470.73,2023-9-10T02:35:23Z
2023-09-10T00:36:05Z,42.805,6.029,13.3040,4.60114,2470.74,2023-9-10T02:38:26Z
2023-09-10T00:39:08Z,42.805,6.029,13.3042,4.60121,2470.717,2023-9-10T02:41:29Z
2023-09-10T00:42:11Z,42.805,6.029,13.3042,4.60132,2470.73,2023-9-10T02:44:33Z
2023-09-10T00:45:14Z,42.805,6.029,13.3041,4.60125,2470.777,2023-9-10T02:47:36Z
2023-09-10T00:48:17Z,42.805,6.029,13.3039,4.60114,2470.73,2023-9-10T02:50:39Z
2023-09-10T00:51:20Z,42.805,6.029,13.3041,4.60125,2470.693,2023-9-10T02:53:42Z
2023-09-10T00:54:23Z,42.805,6.029,13.3048,4.60126,2470.74,2023-9-10T02:56:45Z
2023-09-10T00:57:26Z,42.805,6.029,13.3042,4.60120,2470.754,2023-9-10T02:59:48Z
2023-09-10T01:00:30Z,42.805,6.029,13.3039,4.60114,2470.74,2023-9-10T03:02:51Z
2023-09-10T01:03:33Z,42.805,6.029,13.3036,4.60114,2470.74,2023-9-10T03:05:54Z
2023-09-10T01:06:36Z,42.805,6.029,13.3049,4.60129,2470.717,2023-9-10T03:08:57Z
2023-09-10T01:09:39Z,42.805,6.029,13.3046,4.60125,2470.717,2023-9-10T03:12:00Z
2023-09-10T01:12:42Z,42.805,6.029,13.3042,4.60133,2470.754,2023-9-10T03:15:03Z
2023-09-10T01:15:45Z,42.805,6.029,13.3036,4.60134,2470.74,2023-9-10T03:18:06Z
2023-09-10T01:18:48Z,42.805,6.029,13.3048,4.60131,2470.73,2023-9-10T03:21:10Z
2023-09-10T01:21:51Z,42.805,6.029,13.3046,4.60140,2470.693,2023-9-10T03:24:13Z
2023-09-10T01:24:54Z,42.805,6.029,13.3049,4.60131,2470.707,2023-9-10T03:27:16Z
2023-09-10T01:27:57Z,42.805,6.029,13.3043,4.60125,2470.717,2023-9-10T03:30:19Z
2023-09-10T01:31:00Z,42.805,6.029,13.3039,4.60116,2470.74,2023-9-10T03:33:22Z
2023-09-10T01:34:03Z,42.805,6.029,13.3037,4.60132,2470.717,2023-9-10T03:36:25Z
2023-09-10T01:37:07Z,42.805,6.029,13.3043,4.60125,2470.754,2023-9-10T03:39:28Z
2023-09-10T01:40:10Z,42.805,6.029,13.3041,4.60117,2470.74,2023-9-10T03:42:31Z
2023-09-10T01:43:13Z,42.805,6.029,13.3043,4.60122,2470.74,2023-9-10T03:45:34Z
2023-09-10T01:46:16Z,42.805,6.029,13.3042,4.60127,2470.717,2023-9-10T03:48:37Z
2023-09-10T01:49:19Z,42.805,6.029,13.3041,4.60123,2470.754,2023-9-10T03:51:40Z
2023-09-10T01:52:22Z,42.805,6.029,13.3040,4.60121,2470.777,2023-9-10T03:54:43Z
2023-09-10T01:55:25Z,42.805,6.029,13.3046,4.60127,2470.754,2023-9-10T03:57:47Z
2023-09-10T01:58:28Z,42.805,6.029,13.3048,4.60129,2470.763,2023-9-10T04:00:50Z
2023-09-10T02:01:31Z,42.805,6.029,13.3046,4.60125,2470.763,2023-9-10T04:03:53Z
2023-09-10T02:04:34Z,42.805,6.029,13.3043,4.60137,2470.763,2023-9-10T04:06:56Z
2023-09-10T02:07:37Z,42.805,6.029,13.3052,4.60143,2470.777,2023-9-10T04:09:59Z
2023-09-10T02:10:40Z,42.805,6.029,13.3038,4.60137,2470.777,2023-9-10T04:13:02Z
2023-09-10T02:13:43Z,42.805,6.029,13.3039,4.60137,2470.754,2023-9-10T04:16:05Z
2023-09-10T02:16:47Z,42.805,6.029,13.3045,4.60114,2470.74,2023-9-10T04:19:08Z
2023-09-10T02:19:50Z,42.805,6.029,13.3044,4.60126,2470.74,2023-9-10T04:22:11Z
2023-09-10T02:22:53Z,42.805,6.029,13.3040,4.60146,2470.754,2023-9-10T04:25:14Z
2023-09-10T02:25:56Z,42.805,6.029,13.3047,4.60141,2470.754,2023-9-10T04:28:17Z
2023-09-10T02:28:59Z,42.805,6.029,13.3041,4.60144,2470.763,2023-9-10T04:31:20Z
2023-09-10T02:32:02Z,42.805,6.029,13.3045,4.60149,2470.717,2023-9-10T04:34:23Z
2023-09-10T02:35:05Z,42.805,6.029,13.3042,4.60122,2470.763,2023-9-10T04:37:27Z
2023-09-10T02:38:08Z,42.805,6.029,13.3046,4.60127,2470.754,2023-9-10T04:40:30Z
2023-09-10T02:41:11Z,42.805,6.029,13.3048,4.60148,2470.74,2023-9-10T04:43:33Z
2023-09-10T02:44:14Z,42.805,6.029,13.3058,4.60128,2470.777,2023-9-10T04:46:36Z
2023-09-10T02:47:17Z,42.805,6.029,13.3051,4.60127,2470.74,2023-9-10T04:49:39Z
2023-09-10T02:50:20Z,42.805,6.029,13.3043,4.60126,2470.754,2023-9-10T04:52:42Z
2023-09-10T02:53:24Z,42.805,6.029,13.3044,4.60132,2470.717,2023-9-10T04:55:45Z
2023-09-10T02:56:27Z,42.805,6.029,13.3044,4.60137,2470.763,2023-9-10T04:58:48Z
2023-09-10T02:59:30Z,42.805,6.029,13.3041,4.60131,2470.74,2023-9-10T05:01:51Z
2023-09-10T03:02:33Z,42.805,6.029,13.3040,4.60132,2470.754,2023-9-10T05:04:54Z
2023-09-10T03:05:36Z,42.805,6.029,13.3047,4.60124,2470.763,2023-9-10T05:07:57Z
2023-09-10T03:08:39Z,42.805,6.029,13.3053,4.60140,2470.717,2023-9-10T05:11:00Z
2023-09-10T03:11:42Z,42.805,6.029,13.3043,4.60127,2470.777,2023-9-10T05:14:04Z
2023-09-10T03:14:45Z,42.805,6.029,13.3049,4.60141,2470.763,2023-9-10T05:17:07Z
2023-09-10T03:17:48Z,42.805,6.029,13.3054,4.60154,2470.763,2023-9-10T05:20:10Z
2023-09-10T03:20:51Z,42.805,6.029,13.3056,4.60149,2470.763,2023-9-10T05:23:13Z
2023-09-10T03:23:54Z,42.805,6.029,13.3046,4.60160,2470.717,2023-9-10T05:26:16Z
2023-09-10T03:26:57Z,42.805,6.029,13.3049,4.60145,2470.754,2023-9-10T05:29:19Z
2023-09-10T03:30:00Z,42.805,6.029,13.3041,4.60129,2470.763,2023-9-10T05:32:22Z
2023-09-10T03:33:04Z,42.805,6.029,13.3048,4.60149,2470.777,2023-9-10T05:35:25Z
2023-09-10T03:36:07Z,42.805,6.029,13.3041,4.60121,2470.763,2023-9-10T05:38:28Z
2023-09-10T03:39:10Z,42.805,6.029,13.3063,4.60166,2470.763,2023-9-10T05:41:31Z
2023-09-10T03:42:13Z,42.805,6.029,13.3047,4.60155,2470.74,2023-9-10T05:44:34Z
2023-09-10T03:45:16Z,42.805,6.029,13.3048,4.60142,2470.754,2023-9-10T05:47:37Z
2023-09-10T03:48:19Z,42.805,6.029,13.3046,4.60173,2470.74,2023-9-10T05:50:40Z
2023-09-10T03:51:22Z,42.805,6.029,13.3062,4.60172,2470.777,2023-9-10T05:53:44Z
2023-09-10T03:54:25Z,42.805,6.029,13.3068,4.60147,2470.763,2023-9-10T05:56:47Z
2023-09-10T03:57:28Z,42.805,6.029,13.3048,4.60167,2470.74,2023-9-10T05:59:50Z
2023-09-10T04:00:31Z,42.805,6.029,13.3052,4.60156,2470.717,2023-9-10T06:02:53Z
2023-09-10T04:03:34Z,42.805,6.029,13.3050,4.60154,2470.717,2023-9-10T06:05:56Z
2023-09-10T04:06:37Z,42.805,6.029,13.3051,4.60150,2470.717,2023-9-10T06:08:59Z
2023-09-10T04:09:41Z,42.805,6.029,13.3047,4.60139,2470.763,2023-9-10T06:12:02Z
2023-09-10T04:12:44Z,42.805,6.029,13.3053,4.60146,2470.763,2023-9-10T06:15:05Z
2023-09-10T04:15:47Z,42.805,6.029,13.3051,4.60160,2470.717,2023-9-10T06:18:08Z
2023-09-10T04:18:50Z,42.805,6.029,13.3056,4.60145,2470.754,2023-9-10T06:21:11Z
2023-09-10T04:21:53Z,42.805,6.029,13.3046,4.60157,2470.8,2023-9-10T06:24:14Z
2023-09-10T04:24:56Z,42.805,6.029,13.3055,4.60170,2470.74,2023-9-10T06:27:17Z
2023-09-10T04:27:59Z,42.805,6.029,13.3056,4.60144,2470.74,2023-9-10T06:30:21Z
2023-09-10T04:31:02Z,42.805,6.029,13.3050,4.60143,2470.787,2023-9-10T06:33:24Z
2023-09-10T04:34:05Z,42.805,6.029,13.3046,4.60147,2470.787,2023-9-10T06:36:27Z
2023-09-10T04:37:08Z,42.805,6.029,13.3051,4.60135,2470.763,2023-9-10T06:39:30Z
2023-09-10T04:40:11Z,42.805,6.029,13.3048,4.60146,2470.74,2023-9-10T06:42:33Z
2023-09-10T04:43:14Z,42.805,6.029,13.3051,4.60135,2470.763,2023-9-10T06:45:36Z
2023-09-10T04:46:18Z,42.805,6.029,13.3045,4.60145,2470.754,2023-9-10T06:48:39Z
2023-09-10T04:49:21Z,42.805,6.029,13.3054,4.60155,2470.754,2023-9-10T06:51:42Z
2023-09-10T04:52:24Z,42.805,6.029,13.3046,4.60148,2470.73,2023-9-10T06:54:45Z
2023-09-10T04:55:27Z,42.805,6.029,13.3047,4.60133,2470.74,2023-9-10T06:57:48Z
2023-09-10T04:58:30Z,42.805,6.029,13.3051,4.60122,2470.754,2023-9-10T07:00:51Z
2023-09-10T05:01:33Z,42.805,6.029,13.3048,4.60142,2470.777,2023-9-10T07:03:54Z
2023-09-10T05:04:36Z,42.805,6.029,13.3054,4.60155,2470.763,2023-9-10T07:06:58Z
2023-09-10T05:07:39Z,42.805,6.029,13.3054,4.60150,2470.74,2023-9-10T07:10:01Z
2023-09-10T05:10:42Z,42.805,6.029,13.3054,4.60166,2470.74,2023-9-10T07:13:04Z
2023-09-10T05:13:45Z,42.805,6.029,13.3048,4.60144,2470.777,2023-9-10T07:16:07Z
2023-09-10T05:16:48Z,42.805,6.029,13.3051,4.60156,2470.754,2023-9-10T07:19:10Z
2023-09-10T05:19:51Z,42.805,6.029,13.3048,4.60169,2470.74,2023-9-10T07:22:13Z
2023-09-10T05:22:54Z,42.805,6.029,13.3049,4.60157,2470.787,2023-9-10T07:25:16Z
2023-09-10T05:25:58Z,42.805,6.029,13.3043,4.60135,2470.754,2023-9-10T07:28:19Z
2023-09-10T05:29:01Z,42.805,6.029,13.3048,4.60138,2470.717,2023-9-10T07:31:22Z
2023-09-10T05:32:04Z,42.805,6.029,13.3043,4.60158,2470.754,2023-9-10T07:34:25Z
2023-09-10T05:35:07Z,42.805,6.029,13.3054,4.60143,2470.754,2023-9-10T07:37:28Z
2023-09-10T05:38:10Z,42.805,6.029,13.3043,4.60150,2470.74,2023-9-10T07:40:31Z
2023-09-10T05:41:13Z,42.805,6.029,13.3056,4.60152,2470.777,2023-9-10T07:43:35Z
2023-09-10T05:44:16Z,42.805,6.029,13.3045,4.60167,2470.74,2023-9-10T07:46:38Z
2023-09-10T05:47:19Z,42.805,6.029,13.3051,4.60150,2470.754,2023-9-10T07:49:41Z
2023-09-10T05:50:22Z,42.805,6.029,13.3045,4.60143,2470.777,2023-9-10T07:52:44Z
2023-09-10T05:53:25Z,42.805,6.029,13.3054,4.60158,2470.763,2023-9-10T07:55:47Z
2023-09-10T05:56:28Z,42.805,6.029,13.3056,4.60185,2470.754,2023-9-10T07:58:50Z
2023-09-10T05:59:31Z,42.805,6.029,13.3051,4.60164,2470.763,2023-9-10T08:01:53Z
2023-09-10T06:02:35Z,42.805,6.029,13.3061,4.60151,2470.717,2023-9-10T08:04:56Z
2023-09-10T06:05:38Z,42.805,6.029,13.3050,4.60137,2470.74,2023-9-10T08:07:59Z
2023-09-10T06:08:41Z,42.805,6.029,13.3043,4.60146,2470.707,2023-9-10T08:11:02Z
2023-09-10T06:11:44Z,42.805,6.029,13.3043,4.60125,2470.763,2023-9-10T08:14:05Z
2023-09-10T06:14:47Z,42.805,6.029,13.3058,4.60149,2470.763,2023-9-10T08:17:08Z
2023-09-10T06:17:50Z,42.805,6.029,13.3042,4.60150,2470.717,2023-9-10T08:20:11Z
2023-09-10T06:20:53Z,42.805,6.029,13.3055,4.60167,2470.763,2023-9-10T08:23:15Z
2023-09-10T06:23:56Z,42.805,6.029,13.3067,4.60160,2470.74,2023-9-10T08:26:18Z
2023-09-10T06:26:59Z,42.805,6.029,13.3061,4.60150,2470.754,2023-9-10T08:29:21Z
2023-09-10T06:30:02Z,42.805,6.029,13.3041,4.60104,2470.74,2023-9-10T08:32:24Z
2023-09-10T06:33:05Z,42.805,6.029,13.3056,4.60112,2470.717,2023-9-10T08:35:27Z
2023-09-10T06:36:08Z,42.805,6.029,13.3063,4.60132,2470.717,2023-9-10T08:38:30Z
2023-09-10T06:39:11Z,42.805,6.029,13.3054,4.60143,2470.754,2023-9-10T08:41:33Z
2023-09-10T06:42:15Z,42.805,6.029,13.3052,4.60142,2470.73,2023-9-10T08:44:36Z
2023-09-10T06:45:18Z,42.805,6.029,13.3057,4.60145,2470.717,2023-9-10T08:47:39Z
2023-09-10T06:48:21Z,42.805,6.029,13.3054,4.60127,2470.717,2023-9-10T08:50:42Z
2023-09-10T06:51:24Z,42.805,6.029,13.3060,4.60130,2470.763,2023-9-10T08:53:45Z
2023-09-10T06:54:27Z,42.805,6.029,13.3066,4.60164,2470.73,2023-9-10T08:56:48Z
2023-09-10T06:57:30Z,42.805,6.029,13.3058,4.60142,2470.717,2023-9-10T08:59:52Z
2023-09-10T07:00:33Z,42.805,6.029,13.3054,4.60125,2470.717,2023-9-10T09:02:55Z
2023-09-10T07:03:36Z,42.805,6.029,13.3056,4.60152,2470.74,2023-9-10T09:05:58Z
2023-09-10T07:06:39Z,42.805,6.029,13.3054,4.60125,2470.74,2023-9-10T09:09:01Z
2023-09-10T07:09:42Z,42.805,6.029,13.3041,4.60145,2470.754,2023-9-10T09:12:04Z
2023-09-10T07:12:45Z,42.805,6.029,13.3051,4.60166,2470.693,2023-9-10T09:15:07Z
2023-09-10T07:15:49Z,42.805,6.029,13.3054,4.60135,2470.717,2023-9-10T09:18:10Z
2023-09-10T07:18:52Z,42.805,6.029,13.3051,4.60141,2470.754,2023-9-10T09:21:13Z
2023-09-10T07:21:55Z,42.805,6.029,13.3065,4.60127,2470.73,2023-9-10T09:24:16Z
2023-09-10T07:24:58Z,42.805,6.029,13.3063,4.60129,2470.717,2023-9-10T09:27:19Z
2023-09-10T07:28:01Z,42.805,6.029,13.3057,4.60147,2470.707,2023-9-10T09:30:22Z
2023-09-10T07:31:04Z,42.805,6.029,13.3061,4.60139,2470.717,2023-9-10T09:33:25Z
2023-09-10T07:34:07Z,42.805,6.029,13.3063,4.60130,2470.717,2023-9-10T09:36:29Z
2023-09-10T07:37:10Z,42.805,6.029,13.3056,4.60140,2470.717,2023-9-10T09:39:32Z
2023-09-10T07:40:13Z,42.805,6.029,13.3055,4.60126,2470.74,2023-9-10T09:42:35Z
2023-09-10T07:43:16Z,42.805,6.029,13.3062,4.60148,2470.693,2023-9-10T09:45:38Z
2023-09-10T07:46:19Z,42.805,6.029,13.3060,4.60130,2470.73,2023-9-10T09:48:41Z
2023-09-10T07:49:22Z,42.805,6.029,13.3055,4.60150,2470.73,2023-9-10T09:51:44Z
2023-09-10T07:52:25Z,42.805,6.029,13.3055,4.60127,2470.707,2023-9-10T09:54:47Z
2023-09-10T07:55:29Z,42.805,6.029,13.3051,4.60111,2470.754,2023-9-10T09:57:50Z
2023-09-10T07:58:32Z,42.805,6.029,13.3053,4.60115,2470.717,2023-9-10T10:00:53Z
2023-09-10T08:01:35Z,42.805,6.029,13.3061,4.60119,2470.707,2023-9-10T10:03:56Z
2023-09-10T08:04:38Z,42.805,6.029,13.3059,4.60125,2470.754,2023-9-10T10:06:59Z
2023-09-10T08:07:41Z,42.805,6.029,13.3054,4.60127,2470.73,2023-9-10T10:10:02Z
2023-09-10T08:10:44Z,42.805,6.029,13.3059,4.60149,2470.693,2023-9-10T10:13:06Z
2023-09-10T08:13:47Z,42.805,6.029,13.3056,4.60110,2470.717,2023-9-10T10:16:09Z
2023-09-10T08:16:50Z,42.805,6.029,13.3047,4.60109,2470.73,2023-9-10T10:19:12Z
2023-09-10T08:19:53Z,42.805,6.029,13.3061,4.60117,2470.693,2023-9-10T10:22:15Z
2023-09-10T08:22:56Z,42.805,6.029,13.3041,4.60116,2470.717,2023-9-10T10:25:18Z
2023-09-10T08:25:59Z,42.805,6.029,13.3055,4.60114,2470.717,2023-9-10T10:28:21Z
2023-09-10T08:29:03Z,42.805,6.029,13.3044,4.60112,2470.693,2023-9-10T10:31:24Z
2023-09-10T08:32:07Z,42.805,6.029,13.3054,4.60118,2470.693,2023-9-10T10:34:29Z
2023-09-10T08:35:11Z,42.805,6.029,13.3050,4.60112,2470.693,2023-9-10T10:37:32Z
2023-09-10T08:38:14Z,42.805,6.029,13.3048,4.60110,2470.693,2023-9-10T10:40:35Z
2023-09-10T08:41:17Z,42.805,6.029,13.3043,4.60114,2470.693,2023-9-10T10:43:38Z
2023-09-10T08:44:20Z,42.805,6.029,13.3043,4.60113,2470.707,2023-9-10T10:46:41Z
2023-09-10T08:47:23Z,42.805,6.029,13.3046,4.60098,2470.67,2023-9-10T10:49:44Z
2023-09-10T08:50:26Z,42.805,6.029,13.3037,4.60096,2470.74,2023-9-10T10:52:48Z
2023-09-10T08:53:29Z,42.805,6.029,13.3045,4.60106,2470.693,2023-9-10T10:55:51Z
2023-09-10T08:56:32Z,42.805,6.029,13.3042,4.60098,2470.717,2023-9-10T10:58:54Z
2023-09-10T08:59:35Z,42.805,6.029,13.3041,4.60109,2470.693,2023-9-10T11:01:57Z
2023-09-10T09:02:38Z,42.805,6.029,13.3045,4.60107,2470.707,2023-9-10T11:05:00Z
2023-09-10T09:05:41Z,42.805,6.029,13.3039,4.60114,2470.73,2023-9-10T11:08:03Z
2023-09-10T09:08:44Z,42.805,6.029,13.3039,4.60101,2470.73,2023-9-10T11:11:06Z
2023-09-10T09:11:48Z,42.805,6.029,13.3051,4.60108,2470.693,2023-9-10T11:14:09Z
2023-09-10T09:14:51Z,42.805,6.029,13.3046,4.60108,2470.693,2023-9-10T11:17:12Z
2023-09-10T09:17:54Z,42.805,6.029,13.3054,4.60104,2470.717,2023-9-10T11:20:15Z
2023-09-10T09:20:57Z,42.805,6.029,13.3048,4.60117,2470.67,2023-9-10T11:23:18Z
2023-09-10T09:24:00Z,42.805,6.029,13.3050,4.60120,2470.67,2023-9-10T11:26:21Z
2023-09-10T09:27:03Z,42.805,6.029,13.3054,4.60109,2470.67,2023-9-10T11:29:25Z
2023-09-10T09:30:06Z,42.805,6.029,13.3039,4.60110,2470.67,2023-9-10T11:32:28Z
2023-09-10T09:33:09Z,42.805,6.029,13.3045,4.60114,2470.67,2023-9-10T11:35:31Z
2023-09-10T09:36:12Z,42.805,6.029,13.3052,4.60115,2470.67,2023-9-10T11:38:34Z
2023-09-10T09:39:15Z,42.805,6.029,13.3036,4.60106,2470.67,2023-9-10T11:41:37Z
2023-09-10T09:42:18Z,42.805,6.029,13.3056,4.60103,2470.67,2023-9-10T11:44:40Z
2023-09-10T09:45:22Z,42.805,6.029,13.3035,4.60110,2470.707,2023-9-10T11:47:43Z
2023-09-10T09:48:25Z,42.805,6.029,13.3042,4.60114,2470.707,2023-9-10T11:50:46Z
2023-09-10T09:51:28Z,42.805,6.029,13.3039,4.60098,2470.707,2023-9-10T11:53:49Z
2023-09-10T09:54:31Z,42.805,6.029,13.3033,4.60095,2470.693,2023-9-10T11:56:52Z
2023-09-10T09:57:34Z,42.805,6.029,13.3039,4.60099,2470.684,2023-9-10T11:59:55Z
2023-09-10T10:00:37Z,42.805,6.029,13.3045,4.60099,2470.646,2023-9-10T12:02:59Z
2023-09-10T10:03:40Z,42.805,6.029,13.3043,4.60122,2470.646,2023-9-10T12:06:02Z
2023-09-10T10:06:43Z,42.805,6.029,13.3039,4.60107,2470.707,2023-9-10T12:09:05Z
2023-09-10T10:09:46Z,42.805,6.029,13.3038,4.60120,2470.684,2023-9-10T12:12:08Z
2023-09-10T10:12:49Z,42.805,6.029,13.3036,4.60117,2470.656,2023-9-10T12:15:11Z
2023-09-10T10:15:52Z,42.805,6.029,13.3039,4.60101,2470.684,2023-9-10T12:18:14Z
2023-09-10T10:18:55Z,42.805,6.029,13.3037,4.60102,2470.646,2023-9-10T12:21:17Z
2023-09-10T10:21:59Z,42.805,6.029,13.3058,4.60108,2470.67,2023-9-10T12:24:20Z
2023-09-10T10:25:02Z,42.805,6.029,13.3037,4.60098,2470.693,2023-9-10T12:27:23Z
2023-09-10T10:28:05Z,42.805,6.029,13.3042,4.60108,2470.646,2023-9-10T12:30:26Z
2023-09-10T10:31:06Z,42.805,6.029,13.3052,4.60106,2470.67,2023-9-10T12:33:28Z
2023-09-10T10:34:09Z,42.805,6.029,13.3040,4.60097,2470.67,2023-9-10T12:36:31Z
2023-09-10T10:37:12Z,42.805,6.029,13.3049,4.60110,2470.684,2023-9-10T12:39:34Z
2023-09-10T10:40:15Z,42.805,6.029,13.3038,4.60104,2470.684,2023-9-10T12:42:37Z
2023-09-10T10:43:18Z,42.805,6.029,13.3042,4.60114,2470.67,2023-9-10T12:45:40Z
2023-09-10T10:46:22Z,42.805,6.029,13.3039,4.60107,2470.646,2023-9-10T12:48:43Z
2023-09-10T10:49:25Z,42.805,6.029,13.3054,4.60114,2470.684,2023-9-10T12:51:46Z
2023-09-10T10:52:28Z,42.805,6.029,13.3040,4.60116,2470.656,2023-9-10T12:54:49Z
2023-09-10T10:55:31Z,42.805,6.029,13.3035,4.60096,2470.67,2023-9-10T12:57:52Z
2023-09-10T10:58:34Z,42.805,6.029,13.3040,4.60114,2470.693,2023-9-10T13:00:55Z
2023-09-10T11:01:37Z,42.805,6.029,13.3035,4.60094,2470.67,2023-9-10T13:03:59Z
2023-09-10T11:04:40Z,42.805,6.029,13.3039,4.60116,2470.67,2023-9-10T13:07:02Z
2023-09-10T11:07:43Z,42.805,6.029,13.3036,4.60094,2470.67,2023-9-10T13:10:05Z
2023-09-10T11:10:46Z,42.805,6.029,13.3034,4.60095,2470.67,2023-9-10T13:13:08Z
2023-09-10T11:13:49Z,42.805,6.029,13.3052,4.60119,2470.646,2023-9-10T13:16:11Z
2023-09-10T11:16:52Z,42.805,6.029,13.3038,4.60109,2470.679,2023-9-10T13:19:14Z
2023-09-10T11:19:55Z,42.805,6.029,13.3047,4.60106,2470.693,2023-9-10T13:22:17Z
2023-09-10T11:22:59Z,42.805,6.029,13.3039,4.60125,2470.646,2023-9-10T13:25:20Z
2023-09-10T11:26:02Z,42.805,6.029,13.3048,4.60110,2470.693,2023-9-10T13:28:23Z
2023-09-10T11:29:05Z,42.805,6.029,13.3036,4.60096,2470.684,2023-9-10T13:31:26Z
2023-09-10T11:32:08Z,42.805,6.029,13.3031,4.60101,2470.67,2023-9-10T13:34:29Z
2023-09-10T11:35:11Z,42.805,6.029,13.3039,4.60105,2470.684,2023-9-10T13:37:32Z
2023-09-10T11:38:14Z,42.805,6.029,13.3040,4.60115,2470.67,2023-9-10T13:40:36Z
2023-09-10T11:41:17Z,42.805,6.029,13.3034,4.60107,2470.684,2023-9-10T13:43:39Z
2023-09-10T11:44:20Z,42.805,6.029,13.3051,4.60116,2470.684,2023-9-10T13:46:42Z
2023-09-10T11:47:23Z,42.805,6.029,13.3048,4.60121,2470.707,2023-9-10T13:49:45Z
2023-09-10T11:50:26Z,42.805,6.029,13.3047,4.60119,2470.73,2023-9-10T13:52:48Z
2023-09-10T11:53:30Z,42.805,6.029,13.3050,4.60107,2470.73,2023-9-10T13:55:51Z
2023-09-10T11:56:33Z,42.805,6.029,13.3051,4.60122,2470.693,2023-9-10T13:58:54Z
2023-09-10T11:59:36Z,42.805,6.029,13.3046,4.60124,2470.67,2023-9-10T14:01:57Z
2023-09-10T12:02:39Z,42.805,6.029,13.3043,4.60131,2470.717,2023-9-10T14:05:00Z
2023-09-10T12:05:42Z,42.805,6.029,13.3048,4.60107,2470.717,2023-9-10T14:08:03Z
2023-09-10T12:08:45Z,42.805,6.029,13.3047,4.60127,2470.693,2023-9-10T14:11:06Z
2023-09-10T12:11:48Z,42.805,6.029,13.3044,4.60123,2470.74,2023-9-10T14:14:10Z
2023-09-10T12:14:51Z,42.805,6.029,13.3043,4.60114,2470.707,2023-9-10T14:17:13Z
2023-09-10T12:17:54Z,42.805,6.029,13.3042,4.60110,2470.693,2023-9-10T14:20:16Z
2023-09-10T12:20:57Z,42.805,6.029,13.3043,4.60146,2470.717,2023-9-10T14:23:19Z
2023-09-10T12:24:00Z,42.805,6.029,13.3036,4.60125,2470.693,2023-9-10T14:26:22Z
2023-09-10T12:27:03Z,42.805,6.029,13.3040,4.60125,2470.717,2023-9-10T14:29:25Z
2023-09-10T12:30:07Z,42.805,6.029,13.3039,4.60127,2470.717,2023-9-10T14:32:28Z
2023-09-10T12:33:10Z,42.805,6.029,13.3038,4.60114,2470.754,2023-9-10T14:35:31Z
2023-09-10T12:36:13Z,42.805,6.029,13.3035,4.60110,2470.693,2023-9-10T14:38:34Z
2023-09-10T12:39:16Z,42.805,6.029,13.3040,4.60124,2470.754,2023-9-10T14:41:37Z
2023-09-10T12:42:19Z,42.805,6.029,13.3039,4.60116,2470.717,2023-9-10T14:44:40Z
2023-09-10T12:45:22Z,42.805,6.029,13.3034,4.60128,2470.684,2023-9-10T14:47:44Z
2023-09-10T12:48:25Z,42.805,6.029,13.3041,4.60124,2470.717,2023-9-10T14:50:47Z
2023-09-10T12:51:28Z,42.805,6.029,13.3051,4.60127,2470.707,2023-9-10T14:53:50Z
2023-09-10T12:54:31Z,42.805,6.029,13.3037,4.60131,2470.717,2023-9-10T14:56:53Z
2023-09-10T12:57:34Z,42.805,6.029,13.3037,4.60127,2470.707,2023-9-10T14:59:56Z
2023-09-10T13:00:37Z,42.805,6.029,13.3035,4.60115,2470.73,2023-9-10T15:02:59Z
2023-09-10T13:03:41Z,42.805,6.029,13.3035,4.60129,2470.717,2023-9-10T15:06:02Z
2023-09-10T13:06:44Z,42.805,6.029,13.3034,4.60121,2470.73,2023-9-10T15:09:05Z
2023-09-10T13:09:47Z,42.805,6.029,13.3036,4.60127,2470.73,2023-9-10T15:12:08Z
2023-09-10T13:12:50Z,42.805,6.029,13.3043,4.60130,2470.707,2023-9-10T15:15:11Z
2023-09-10T13:15:53Z,42.805,6.029,13.3038,4.60134,2470.707,2023-9-10T15:18:14Z
2023-09-10T13:18:56Z,42.805,6.029,13.3041,4.60121,2470.693,2023-9-10T15:21:18Z
2023-09-10T13:21:59Z,42.805,6.029,13.3041,4.60116,2470.754,2023-9-10T15:24:21Z
2023-09-10T13:25:02Z,42.805,6.029,13.3040,4.60125,2470.74,2023-9-10T15:27:24Z
2023-09-10T13:28:05Z,42.805,6.029,13.3041,4.60127,2470.74,2023-9-10T15:30:27Z
2023-09-10T13:31:08Z,42.805,6.029,13.3034,4.60132,2470.73,2023-9-10T15:33:30Z
2023-09-10T13:34:11Z,42.805,6.029,13.3039,4.60142,2470.74,2023-9-10T15:36:33Z
2023-09-10T13:37:14Z,42.805,6.029,13.3038,4.60140,2470.74,2023-9-10T15:39:36Z
2023-09-10T13:40:18Z,42.805,6.029,13.3045,4.60129,2470.693,2023-9-10T15:42:39Z
2023-09-10T13:43:21Z,42.805,6.029,13.3040,4.60123,2470.754,2023-9-10T15:45:42Z
2023-09-10T13:46:24Z,42.805,6.029,13.3039,4.60139,2470.763,2023-9-10T15:48:45Z
2023-09-10T13:49:27Z,42.805,6.029,13.3054,4.60138,2470.73,2023-9-10T15:51:48Z
2023-09-10T13:52:30Z,42.805,6.029,13.3042,4.60140,2470.74,2023-9-10T15:54:52Z
2023-09-10T13:55:33Z,42.805,6.029,13.3041,4.60137,2470.74,2023-9-10T15:57:55Z
2023-09-10T13:58:36Z,42.805,6.029,13.3043,4.60145,2470.777,2023-9-10T16:00:58Z
2023-09-10T14:01:39Z,42.805,6.029,13.3039,4.60130,2470.763,2023-9-10T16:04:01Z
2023-09-10T14:04:42Z,42.805,6.029,13.3041,4.60131,2470.74,2023-9-10T16:07:04Z
2023-09-10T14:07:45Z,42.805,6.029,13.3036,4.60139,2470.74,2023-9-10T16:10:07Z
2023-09-10T14:10:48Z,42.805,6.029,13.3048,4.60137,2470.754,2023-9-10T16:13:10Z
2023-09-10T14:13:52Z,42.805,6.029,13.3040,4.60127,2470.74,2023-9-10T16:16:13Z
2023-09-10T14:16:55Z,42.805,6.029,13.3038,4.60137,2470.763,2023-9-10T16:19:16Z
2023-09-10T14:19:58Z,42.805,6.029,13.3044,4.60148,2470.777,2023-9-10T16:22:19Z
2023-09-10T14:23:01Z,42.805,6.029,13.3036,4.60129,2470.754,2023-9-10T16:25:22Z
2023-09-10T14:26:04Z,42.805,6.029,13.3047,4.60141,2470.74,2023-9-10T16:28:25Z
2023-09-10T14:29:07Z,42.805,6.029,13.3043,4.60135,2470.763,2023-9-10T16:31:29Z
2023-09-10T14:32:10Z,42.805,6.029,13.3043,4.60135,2470.777,2023-9-10T16:34:32Z
2023-09-10T14:35:13Z,42.805,6.029,13.3043,4.60137,2470.787,2023-9-10T16:37:35Z
2023-09-10T14:38:16Z,42.805,6.029,13.3039,4.60129,2470.81,2023-9-10T16:40:38Z
2023-09-10T14:41:19Z,42.805,6.029,13.3041,4.60134,2470.763,2023-9-10T16:43:41Z
2023-09-10T14:44:22Z,42.805,6.029,13.3040,4.60140,2470.763,2023-9-10T16:46:44Z
2023-09-10T14:47:26Z,42.805,6.029,13.3032,4.60123,2470.763,2023-9-10T16:49:47Z
2023-09-10T14:50:29Z,42.805,6.029,13.3036,4.60130,2470.81,2023-9-10T16:52:50Z
2023-09-10T14:53:32Z,42.805,6.029,13.3039,4.60113,2470.763,2023-9-10T16:55:53Z
2023-09-10T14:56:35Z,42.805,6.029,13.3045,4.60120,2470.777,2023-9-10T16:58:56Z
2023-09-10T14:59:38Z,42.805,6.029,13.3040,4.60139,2470.787,2023-9-10T17:01:59Z
2023-09-10T15:02:41Z,42.805,6.029,13.3037,4.60127,2470.824,2023-9-10T17:05:03Z
2023-09-10T15:05:44Z,42.805,6.029,13.3039,4.60135,2470.787,2023-9-10T17:08:06Z
2023-09-10T15:08:47Z,42.805,6.029,13.3051,4.60142,2470.787,2023-9-10T17:11:09Z
2023-09-10T15:11:50Z,42.805,6.029,13.3043,4.60144,2470.8,2023-9-10T17:14:12Z
2023-09-10T15:14:53Z,42.805,6.029,13.3043,4.60149,2470.787,2023-9-10T17:17:15Z